Regional Weather Roundup
Issued by NWS

Home | Current Version | Previous Version | Graphics & Text | Print | Product List | Glossary On
Versions: 1 2 3 4 5 6 7 8 9 10 11 12 13 14 15 16 17 18 19 20 21 22 23 24 25 26 27 28 29 30 31 32 33 34 35 36 37 38 39 40 41 42 43 44 45 46 47 48 49 50
000
ASUS44 KMEG 311500
RWRTN
TENNESSEE HOURLY STATE WEATHER ROUNDUP
NATIONAL WEATHER SERVICE MEMPHIS TN
900 AM CST SAT JAN 31 2015

TNZ002-004-019-021-049-052-054-088>092-311600-
WEST TENNESSEE

CITY           SKY/WX    TMP DP  RH WIND       PRES   REMARKS
MEMPHIS INTL   CLOUDY    41  22  46 SE5       30.38R
NWS MEMPHIS      N/A     37 N/A N/A MISG        N/A
JACKSON        CLOUDY    35  25  66 SE3       30.40R
DYERSBURG      CLOUDY    36  18  48 SE3       30.42R
UNION CITY     SUNNY     32  27  80 CALM      30.40R
PARIS          SUNNY     32  21  64 SE5       30.39S WCI  27
LEXINGTON      SUNNY     32  25  74 CALM      30.39R
SAVANNAH       SUNNY     34  27  75 CALM      30.40S
$$

TNZ008-025-027-028-033-062-065-066-311600-
NORTH MIDDLE TENNESSEE

CITY           SKY/WX    TMP DP  RH WIND       PRES   REMARKS
NASHVILLE      CLOUDY    32  25  75 S3        30.41R
CLARKSVILLE    PTSUNNY   31  26  82 SW5       30.41R WCI  26
COOKEVILLE     SUNNY     28  25  86 CALM      30.39R
CROSSVILLE     CLOUDY    27  21  78 CALM      30.35S
$$

TNZ061-075-076-078-094-096-097-311600-
SOUTH MIDDLE TENNESSEE

CITY           SKY/WX    TMP DP  RH WIND       PRES   REMARKS
FAYETTEVILLE   SUNNY     30  21  69 MISG      30.38S
TULLAHOMA      SUNNY     30  25  80 CALM      30.39R
WINCHESTER     SUNNY     32  27  80 W3        30.39R
MCMINNVILLE    SUNNY     28  25  86 NE3       30.37S
COLUMBIA       SUNNY     30  30 100 CALM      30.38S
SHELBYVILLE    SUNNY     30  27  86 CALM      30.41R
$$

TNZ017-018-042-046-047-311600-
NORTHEAST TENNESSEE

CITY           SKY/WX    TMP DP  RH WIND       PRES   REMARKS
TRI CITIES     PTSUNNY   27  20  75 CALM      30.39R
ELIZABETHTON   SUNNY     27  16  63 CALM      30.38R
$$

TNZ012-013-036-069-073-074-311600-
CENTRAL EAST TENNESSEE

CITY           SKY/WX    TMP DP  RH WIND       PRES   REMARKS
KNOXVILLE      CLOUDY    30  20  66 NE6       30.40R WCI  24
OAK RIDGE      PTSUNNY   30  21  69 CALM      30.42R
GATLINBURG     SUNNY     27  19  74 CALM      30.40R
MORRISTOWN     SUNNY     30  19  64 E3        30.39R
$$

TNZ083-085-099-311600-
SOUTHEAST TENNESSEE

CITY           SKY/WX    TMP DP  RH WIND       PRES   REMARKS
CHATTANOOGA    PTSUNNY   36  20  52 NE9       30.42R WCI  29
$$

SKY/WX REPORTED AS FAIR MEANS FEW OR NO CLOUDS BELOW
12 THOUSAND FEET.




USA.gov is the U.S. government's official web portal to all federal, state and local government web resources and services.